Time,TemperatureF,DewpointF,PressureIn,WindDirection,WindDirectionDegrees,WindSpeedMPH,WindSpeedGustMPH,Humidity,HourlyPrecipIn,Conditions,Clouds,dailyrainin,SoftwareType,DateUTC
2013-10-01 00:01:00,48.9,46.7,29.99,SSE,160,0.0,0.0,92,0.00,,,0.00,Wunderground v.1.15,2013-10-01 04:01:00,
2013-10-01 00:02:00,48.9,46.7,29.99,SSE,160,0.0,0.0,92,0.00,,,0.00,Wunderground v.1.15,2013-10-01 04:02:00,
2013-10-01 00:07:00,48.8,46.6,29.99,SSE,160,0.0,0.0,92,0.00,,,0.00,Wunderground v.1.15,2013-10-01 04:07:00,
2013-10-01 00:12:00,48.8,46.6,29.99,SSE,160,0.0,0.0,92,0.00,,,0.00,Wunderground v.1.15,2013-10-01 04:12:00,
2013-10-01 00:17:00,48.7,46.5,29.99,SSE,160,0.0,0.0,92,0.00,,,0.00,Wunderground v.1.15,2013-10-01 04:17:00,
2013-10-01 00:22:00,48.5,46.3,29.99,SSE,160,0.0,0.0,92,0.00,,,0.00,Wunderground v.1.15,2013-10-01 04:22:00,
2013-10-01 00:27:00,48.4,46.2,29.99,SSE,160,0.0,0.0,92,0.00,,,0.00,Wunderground v.1.15,2013-10-01 04:27:00,
2013-10-01 00:32:00,48.4,46.2,29.98,SSE,160,0.0,0.0,92,0.00,,,0.00,Wunderground v.1.15,2013-10-01 04:32:00,
2013-10-01 00:37:00,48.5,46.3,29.98,SSE,160,0.0,0.0,92,0.00,,,0.00,Wunderground v.1.15,2013-10-01 04:37:00,
2013-10-01 00:42:00,48.4,46.2,29.98,SSE,160,0.0,0.0,92,0.00,,,0.00,Wunderground v.1.15,2013-10-01 04:42:00,
2013-10-01 00:47:00,48.4,46.2,29.98,SSE,160,0.0,0.0,92,0.00,,,0.00,Wunderground v.1.15,2013-10-01 04:47:00,
2013-10-01 00:52:00,48.3,46.1,29.98,SSE,160,0.0,0.0,92,0.00,,,0.00,Wunderground v.1.15,2013-10-01 04:52:00,
2013-10-01 00:57:00,48.2,46.0,29.98,SSE,160,0.0,0.0,92,0.00,,,0.00,Wunderground v.1.15,2013-10-01 04:57:00,
2013-10-01 01:02:00,48.1,45.9,29.98,SSE,160,0.0,0.0,92,0.00,,,0.00,Wunderground v.1.15,2013-10-01 05:02:00,
2013-10-01 01:07:00,48.0,45.8,29.98,SSE,160,0.0,0.0,92,0.00,,,0.00,Wunderground v.1.15,2013-10-01 05:07:00,
2013-10-01 01:12:00,47.8,45.6,29.98,SSE,160,0.0,0.0,92,0.00,,,0.00,Wunderground v.1.15,2013-10-01 05:12:00,
2013-10-01 01:17:00,47.8,45.6,29.98,SSE,160,0.0,0.0,92,0.00,,,0.00,Wunderground v.1.15,2013-10-01 05:17:00,
2013-10-01 01:22:00,47.6,45.4,29.98,SSE,160,0.0,0.0,92,0.00,,,0.00,Wunderground v.1.15,2013-10-01 05:22:00,
2013-10-01 01:27:00,47.6,45.4,29.98,SSE,160,0.0,0.0,92,0.00,,,0.00,Wunderground v.1.15,2013-10-01 05:27:00,
2013-10-01 01:32:00,47.5,45.3,29.98,SSE,160,0.0,0.0,92,0.00,,,0.00,Wunderground v.1.15,2013-10-01 05:32:00,
2013-10-01 01:37:00,47.4,45.2,29.98,SSE,160,0.0,0.0,92,0.00,,,0.00,Wunderground v.1.15,2013-10-01 05:37:00,
2013-10-01 01:42:00,47.3,45.1,29.98,SSE,160,0.0,0.0,92,0.00,,,0.00,Wunderground v.1.15,2013-10-01 05:42:00,
2013-10-01 01:47:00,47.4,45.5,29.98,SSE,160,0.0,0.0,93,0.00,,,0.00,Wunderground v.1.15,2013-10-01 05:47:00,
2013-10-01 01:52:00,47.5,45.6,29.98,SSE,160,0.0,0.0,93,0.00,,,0.00,Wunderground v.1.15,2013-10-01 05:52:00,
2013-10-01 01:57:00,47.4,45.5,29.98,SSE,160,0.0,0.0,93,0.00,,,0.00,Wunderground v.1.15,2013-10-01 05:57:00,
2013-10-01 02:02:00,47.2,45.0,29.98,SSE,160,0.0,0.0,92,0.00,,,0.00,Wunderground v.1.15,2013-10-01 06:02:00,
2013-10-01 02:07:00,47.0,44.8,29.98,SSE,160,0.0,0.0,92,0.00,,,0.00,Wunderground v.1.15,2013-10-01 06:07:00,
2013-10-01 02:12:00,46.8,44.6,29.97,SSE,160,0.0,0.0,92,0.00,,,0.00,Wunderground v.1.15,2013-10-01 06:12:00,
2013-10-01 02:17:00,46.6,44.4,29.97,SSE,160,0.0,0.0,92,0.00,,,0.00,Wunderground v.1.15,2013-10-01 06:17:00,
2013-10-01 02:22:00,46.4,44.2,29.98,SSE,160,0.0,0.0,92,0.00,,,0.00,Wunderground v.1.15,2013-10-01 06:22:00,
2013-10-01 02:27:00,46.4,44.2,29.98,SSE,160,0.0,0.0,92,0.00,,,0.00,Wunderground v.1.15,2013-10-01 06:27:00,
2013-10-01 02:32:00,46.5,44.6,29.97,SSE,160,0.0,0.0,93,0.00,,,0.00,Wunderground v.1.15,2013-10-01 06:32:00,
2013-10-01 02:37:00,46.5,44.6,29.98,SSE,160,0.0,0.0,93,0.00,,,0.00,Wunderground v.1.15,2013-10-01 06:37:00,
2013-10-01 02:42:00,46.5,44.6,29.98,SSE,160,0.0,0.0,93,0.00,,,0.00,Wunderground v.1.15,2013-10-01 06:42:00,
2013-10-01 02:47:00,46.6,44.7,29.97,SSE,160,0.0,0.0,93,0.00,,,0.00,Wunderground v.1.15,2013-10-01 06:47:00,
2013-10-01 02:52:00,46.7,44.8,29.97,SSE,160,0.0,0.0,93,0.00,,,0.00,Wunderground v.1.15,2013-10-01 06:52:00,
2013-10-01 02:57:00,46.4,44.5,29.97,SSE,160,0.0,0.0,93,0.00,,,0.00,Wunderground v.1.15,2013-10-01 06:57:00,
2013-10-01 03:02:00,45.9,44.0,29.97,SSE,160,0.0,0.0,93,0.00,,,0.00,Wunderground v.1.15,2013-10-01 07:02:00,
2013-10-01 03:07:00,45.5,43.3,29.97,SSE,160,0.0,0.0,92,0.00,,,0.00,Wunderground v.1.15,2013-10-01 07:07:00,
2013-10-01 03:12:00,45.2,43.0,29.97,SSE,160,0.0,0.0,92,0.00,,,0.00,Wunderground v.1.15,2013-10-01 07:12:00,
2013-10-01 03:17:00,45.2,43.0,29.97,SSE,160,0.0,0.0,92,0.00,,,0.00,Wunderground v.1.15,2013-10-01 07:17:00,
2013-10-01 03:22:00,45.2,43.3,29.97,SSE,160,0.0,0.0,93,0.00,,,0.00,Wunderground v.1.15,2013-10-01 07:22:00,
2013-10-01 03:27:00,45.3,43.4,29.97,SSE,160,0.0,0.0,93,0.00,,,0.00,Wunderground v.1.15,2013-10-01 07:27:00,
2013-10-01 03:32:00,45.2,43.3,29.97,SSE,160,0.0,0.0,93,0.00,,,0.00,Wunderground v.1.15,2013-10-01 07:32:00,
2013-10-01 03:37:00,45.2,43.3,29.97,SSE,160,0.0,0.0,93,0.00,,,0.00,Wunderground v.1.15,2013-10-01 07:37:00,
2013-10-01 03:42:00,45.1,43.2,29.97,SSE,160,0.0,0.0,93,0.00,,,0.00,Wunderground v.1.15,2013-10-01 07:42:00,
2013-10-01 03:47:00,45.0,43.1,29.97,SSE,160,0.0,0.0,93,0.00,,,0.00,Wunderground v.1.15,2013-10-01 07:47:00,
2013-10-01 03:52:00,44.8,42.9,29.97,SSE,160,0.0,0.0,93,0.00,,,0.00,Wunderground v.1.15,2013-10-01 07:52:00,
2013-10-01 03:58:00,44.6,42.7,29.97,SSE,160,0.0,0.0,93,0.00,,,0.00,Wunderground v.1.15,2013-10-01 07:58:00,
2013-10-01 04:03:00,44.3,42.4,29.97,SSE,160,0.0,0.0,93,0.00,,,0.00,Wunderground v.1.15,2013-10-01 08:03:00,
2013-10-01 04:08:00,44.2,42.3,29.97,SSE,160,0.0,0.0,93,0.00,,,0.00,Wunderground v.1.15,2013-10-01 08:08:00,
2013-10-01 04:13:00,44.0,42.1,29.97,SSE,160,0.0,0.0,93,0.00,,,0.00,Wunderground v.1.15,2013-10-01 08:13:00,
2013-10-01 04:18:00,44.3,42.4,29.97,SSE,160,0.0,0.0,93,0.00,,,0.00,Wunderground v.1.15,2013-10-01 08:18:00,
2013-10-01 04:23:00,44.5,42.6,29.97,SSE,160,0.0,0.0,93,0.00,,,0.00,Wunderground v.1.15,2013-10-01 08:23:00,
2013-10-01 04:28:00,44.3,42.4,29.97,SSE,160,0.0,0.0,93,0.00,,,0.00,Wunderground v.1.15,2013-10-01 08:28:00,
2013-10-01 04:33:00,44.1,42.2,29.97,SSE,160,0.0,0.0,93,0.00,,,0.00,Wunderground v.1.15,2013-10-01 08:33:00,
2013-10-01 04:38:00,44.0,42.1,29.97,SSE,160,0.0,0.0,93,0.00,,,0.00,Wunderground v.1.15,2013-10-01 08:38:00,
2013-10-01 04:43:00,43.9,42.0,29.97,SSE,160,0.0,0.0,93,0.00,,,0.00,Wunderground v.1.15,2013-10-01 08:43:00,
2013-10-01 04:48:00,43.8,41.9,29.97,SSE,160,0.0,0.0,93,0.00,,,0.00,Wunderground v.1.15,2013-10-01 08:48:00,
2013-10-01 04:53:00,43.7,41.8,29.97,SSE,160,0.0,0.0,93,0.00,,,0.00,Wunderground v.1.15,2013-10-01 08:53:00,
2013-10-01 04:58:00,43.6,41.7,29.97,SSE,160,0.0,0.0,93,0.00,,,0.00,Wunderground v.1.15,2013-10-01 08:58:00,
2013-10-01 05:03:00,43.6,41.7,29.97,SSE,160,0.0,0.0,93,0.00,,,0.00,Wunderground v.1.15,2013-10-01 09:03:00,
2013-10-01 05:08:00,43.5,41.6,29.96,SSE,160,0.0,0.0,93,0.00,,,0.00,Wunderground v.1.15,2013-10-01 09:08:00,
2013-10-01 05:13:00,43.5,41.6,29.96,SSE,160,0.0,0.0,93,0.00,,,0.00,Wunderground v.1.15,2013-10-01 09:13:00,
2013-10-01 05:18:00,43.4,41.5,29.96,SSE,160,0.0,0.0,93,0.00,,,0.00,Wunderground v.1.15,2013-10-01 09:18:00,
2013-10-01 05:23:00,43.5,41.6,29.96,SSE,160,0.0,0.0,93,0.00,,,0.00,Wunderground v.1.15,2013-10-01 09:23:00,
2013-10-01 05:28:00,43.6,41.7,29.96,SSE,160,0.0,0.0,93,0.00,,,0.00,Wunderground v.1.15,2013-10-01 09:28:00,
2013-10-01 05:33:00,43.5,41.6,29.96,SSE,160,0.0,0.0,93,0.00,,,0.00,Wunderground v.1.15,2013-10-01 09:33:00,
2013-10-01 05:38:00,43.4,41.5,29.96,SSE,160,0.0,0.0,93,0.00,,,0.00,Wunderground v.1.15,2013-10-01 09:38:00,
2013-10-01 05:43:00,43.3,41.4,29.97,SSE,160,0.0,0.0,93,0.00,,,0.00,Wunderground v.1.15,2013-10-01 09:43:00,
2013-10-01 05:48:00,43.2,41.3,29.97,SSE,160,0.0,0.0,93,0.00,,,0.00,Wunderground v.1.15,2013-10-01 09:48:00,
2013-10-01 05:53:00,43.1,41.2,29.97,SSE,160,0.0,0.0,93,0.00,,,0.00,Wunderground v.1.15,2013-10-01 09:53:00,
2013-10-01 05:58:00,43.0,41.1,29.97,SSE,160,0.0,0.0,93,0.00,,,0.00,Wunderground v.1.15,2013-10-01 09:58:00,
2013-10-01 06:03:00,43.0,41.1,29.98,SSE,160,0.0,0.0,93,0.00,,,0.00,Wunderground v.1.15,2013-10-01 10:03:00,
2013-10-01 06:08:00,43.0,41.1,29.98,SSE,160,0.0,0.0,93,0.00,,,0.00,Wunderground v.1.15,2013-10-01 10:08:00,
2013-10-01 06:13:00,42.9,41.0,29.98,SSE,160,0.0,0.0,93,0.00,,,0.00,Wunderground v.1.15,2013-10-01 10:13:00,
2013-10-01 06:18:00,43.1,41.2,29.98,SSE,160,0.0,0.0,93,0.00,,,0.00,Wunderground v.1.15,2013-10-01 10:18:00,
2013-10-01 06:23:00,43.3,41.4,29.98,SSE,160,0.0,0.0,93,0.00,,,0.00,Wunderground v.1.15,2013-10-01 10:23:00,
2013-10-01 06:28:00,43.3,41.4,29.98,SSE,160,0.0,0.0,93,0.00,,,0.00,Wunderground v.1.15,2013-10-01 10:28:00,
2013-10-01 06:33:00,43.2,41.3,29.98,SSE,160,0.0,0.0,93,0.00,,,0.00,Wunderground v.1.15,2013-10-01 10:33:00,
2013-10-01 06:38:00,43.2,41.3,29.98,SSE,160,0.0,0.0,93,0.00,,,0.00,Wunderground v.1.15,2013-10-01 10:38:00,
2013-10-01 06:43:00,43.1,41.2,29.98,SSE,160,0.0,0.0,93,0.00,,,0.00,Wunderground v.1.15,2013-10-01 10:43:00,
2013-10-01 06:48:00,43.0,41.1,29.98,SSE,160,0.0,0.0,93,0.00,,,0.00,Wunderground v.1.15,2013-10-01 10:48:00,
2013-10-01 06:53:00,43.1,41.2,29.98,SSE,160,0.0,0.0,93,0.00,,,0.00,Wunderground v.1.15,2013-10-01 10:53:00,
2013-10-01 06:58:00,43.2,41.3,29.98,SSE,160,0.0,0.0,93,0.00,,,0.00,Wunderground v.1.15,2013-10-01 10:58:00,
2013-10-01 07:03:00,43.3,41.7,29.98,SSE,160,0.0,0.0,94,0.00,,,0.00,Wunderground v.1.15,2013-10-01 11:03:00,
2013-10-01 07:09:00,43.4,41.8,29.98,SSE,160,0.0,0.0,94,0.00,,,0.00,Wunderground v.1.15,2013-10-01 11:09:00,
2013-10-01 07:14:00,43.6,41.7,29.98,SSE,160,0.0,0.0,93,0.00,,,0.00,Wunderground v.1.15,2013-10-01 11:14:00,
2013-10-01 07:19:00,43.8,42.2,29.98,SSE,160,0.0,0.0,94,0.00,,,0.00,Wunderground v.1.15,2013-10-01 11:19:00,
2013-10-01 07:24:00,44.2,42.6,29.98,SSE,160,0.0,0.0,94,0.00,,,0.00,Wunderground v.1.15,2013-10-01 11:24:00,
2013-10-01 07:29:00,44.5,42.9,29.98,SSE,160,0.0,0.0,94,0.00,,,0.00,Wunderground v.1.15,2013-10-01 11:29:00,
2013-10-01 07:34:00,44.8,43.2,29.98,SSE,160,0.0,0.0,94,0.00,,,0.00,Wunderground v.1.15,2013-10-01 11:34:00,
2013-10-01 07:39:00,45.0,43.4,29.99,SSE,160,0.0,0.0,94,0.00,,,0.00,Wunderground v.1.15,2013-10-01 11:39:00,
2013-10-01 07:44:00,45.4,43.8,29.98,SSE,160,0.0,0.0,94,0.00,,,0.00,Wunderground v.1.15,2013-10-01 11:44:00,
2013-10-01 07:49:00,46.0,44.4,29.98,SSE,160,0.0,0.0,94,0.00,,,0.00,Wunderground v.1.15,2013-10-01 11:49:00,
2013-10-01 07:54:00,46.7,45.1,29.98,SSE,160,0.0,0.0,94,0.00,,,0.00,Wunderground v.1.15,2013-10-01 11:54:00,
2013-10-01 07:59:00,47.8,46.2,29.98,SSE,160,0.0,0.0,94,0.00,,,0.00,Wunderground v.1.15,2013-10-01 11:59:00,
2013-10-01 08:04:00,49.0,47.3,29.99,SSE,160,0.0,0.0,94,0.00,,,0.00,Wunderground v.1.15,2013-10-01 12:04:00,
2013-10-01 08:09:00,49.7,48.0,29.99,SSE,160,0.0,2.0,94,0.00,,,0.00,Wunderground v.1.15,2013-10-01 12:09:00,
2013-10-01 08:14:00,50.6,48.9,29.99,WSW,243,1.0,3.0,94,0.00,,,0.00,Wunderground v.1.15,2013-10-01 12:14:00,
2013-10-01 08:19:00,51.1,49.4,29.99,NW,307,4.0,4.0,94,0.00,,,0.00,Wunderground v.1.15,2013-10-01 12:19:00,
2013-10-01 08:24:00,51.3,49.6,29.99,NNW,327,0.0,4.0,94,0.00,,,0.00,Wunderground v.1.15,2013-10-01 12:24:00,
2013-10-01 08:29:00,51.7,50.0,29.99,NNW,327,0.0,4.0,94,0.00,,,0.00,Wunderground v.1.15,2013-10-01 12:29:00,
2013-10-01 08:34:00,52.5,50.8,29.99,NNW,327,0.0,1.0,94,0.00,,,0.00,Wunderground v.1.15,2013-10-01 12:34:00,
2013-10-01 08:39:00,53.1,51.4,29.99,NNW,328,1.0,2.0,94,0.00,,,0.00,Wunderground v.1.15,2013-10-01 12:39:00,
2013-10-01 08:44:00,53.6,51.9,29.99,NNW,327,0.0,2.0,94,0.00,,,0.00,Wunderground v.1.15,2013-10-01 12:44:00,
2013-10-01 08:49:00,54.1,52.4,29.99,NNW,328,0.0,3.0,94,0.00,,,0.00,Wunderground v.1.15,2013-10-01 12:49:00,
2013-10-01 08:54:00,54.8,52.8,29.99,NNW,328,3.0,3.0,93,0.00,,,0.00,Wunderground v.1.15,2013-10-01 12:54:00,
2013-10-01 08:59:00,55.7,53.4,29.99,NNW,328,0.0,3.0,92,0.00,,,0.00,Wunderground v.1.15,2013-10-01 12:59:00,
2013-10-01 09:04:00,56.5,53.3,29.99,North,355,0.0,3.0,89,0.00,,,0.00,Wunderground v.1.15,2013-10-01 13:04:00,
2013-10-01 09:09:00,57.3,53.5,29.99,North,355,1.0,3.0,87,0.00,,,0.00,Wunderground v.1.15,2013-10-01 13:09:00,
2013-10-01 09:14:00,58.2,53.7,29.98,North,355,0.0,2.0,85,0.00,,,0.00,Wunderground v.1.15,2013-10-01 13:14:00,
2013-10-01 09:19:00,59.0,53.5,29.98,WNW,298,3.0,4.0,82,0.00,,,0.00,Wunderground v.1.15,2013-10-01 13:19:00,
2013-10-01 09:24:00,60.0,53.1,29.99,NNW,337,0.0,5.0,78,0.00,,,0.00,Wunderground v.1.15,2013-10-01 13:24:00,
2013-10-01 09:30:00,60.5,52.9,29.99,NNW,340,3.0,5.0,76,0.00,,,0.00,Wunderground v.1.15,2013-10-01 13:30:00,
2013-10-01 09:35:00,61.4,53.4,29.98,NNW,327,0.0,4.0,75,0.00,,,0.00,Wunderground v.1.15,2013-10-01 13:35:00,
2013-10-01 09:40:00,62.3,53.5,29.98,NW,323,3.0,3.0,73,0.00,,,0.00,Wunderground v.1.15,2013-10-01 13:40:00,
2013-10-01 09:45:00,63.1,53.5,29.98,NW,325,3.0,3.0,71,0.00,,,0.00,Wunderground v.1.15,2013-10-01 13:45:00,
2013-10-01 09:50:00,63.7,53.7,29.98,NW,325,3.0,3.0,70,0.00,,,0.00,Wunderground v.1.15,2013-10-01 13:50:00,
2013-10-01 09:55:00,64.6,53.8,29.98,NNW,331,3.0,5.0,68,0.00,,,0.00,Wunderground v.1.15,2013-10-01 13:55:00,
2013-10-01 10:00:00,64.7,53.5,29.98,NNW,339,3.0,4.0,67,0.00,,,0.00,Wunderground v.1.15,2013-10-01 14:00:00,
2013-10-01 10:05:00,64.6,53.4,29.98,NNW,344,3.0,7.0,67,0.00,,,0.00,Wunderground v.1.15,2013-10-01 14:05:00,
2013-10-01 10:10:00,64.7,53.5,29.98,NW,319,4.0,4.0,67,0.00,,,0.00,Wunderground v.1.15,2013-10-01 14:10:00,
2013-10-01 10:15:00,65.3,54.5,29.97,NNW,344,4.0,7.0,68,0.00,,,0.00,Wunderground v.1.15,2013-10-01 14:15:00,
2013-10-01 10:20:00,66.1,54.4,29.97,North,349,5.0,7.0,66,0.00,,,0.00,Wunderground v.1.15,2013-10-01 14:20:00,
2013-10-01 10:25:00,66.6,54.5,29.97,WNW,289,3.0,7.0,65,0.00,,,0.00,Wunderground v.1.15,2013-10-01 14:25:00,
2013-10-01 10:30:00,67.2,54.6,29.97,NW,323,4.0,4.0,64,0.00,,,0.00,Wunderground v.1.15,2013-10-01 14:30:00,
2013-10-01 10:35:00,67.5,54.9,29.97,NNW,333,2.0,7.0,64,0.00,,,0.00,Wunderground v.1.15,2013-10-01 14:35:00,
2013-10-01 10:40:00,68.0,54.9,29.97,North,360,0.0,3.0,63,0.00,,,0.00,Wunderground v.1.15,2013-10-01 14:40:00,
2013-10-01 10:45:00,68.6,55.5,29.97,NNW,337,7.0,7.0,63,0.00,,,0.00,Wunderground v.1.15,2013-10-01 14:45:00,
2013-10-01 10:50:00,69.3,54.8,29.96,North,350,6.0,7.0,60,0.00,,,0.00,Wunderground v.1.15,2013-10-01 14:50:00,
2013-10-01 10:55:00,69.4,54.0,29.96,NNW,333,3.0,12.0,58,0.00,,,0.00,Wunderground v.1.15,2013-10-01 14:55:00,
2013-10-01 11:00:00,69.7,54.7,29.96,NNW,339,3.0,5.0,59,0.00,,,0.00,Wunderground v.1.15,2013-10-01 15:00:00,
2013-10-01 11:05:00,70.2,54.7,29.96,NNE,17,5.0,7.0,58,0.00,,,0.00,Wunderground v.1.15,2013-10-01 15:05:00,
2013-10-01 11:10:00,70.9,54.4,29.95,NNW,336,6.0,6.0,56,0.00,,,0.00,Wunderground v.1.15,2013-10-01 15:10:00,
2013-10-01 11:15:00,71.5,54.0,29.95,North,355,4.0,8.0,54,0.00,,,0.00,Wunderground v.1.15,2013-10-01 15:15:00,
2013-10-01 11:20:00,71.5,54.0,29.95,NNW,327,3.0,5.0,54,0.00,,,0.00,Wunderground v.1.15,2013-10-01 15:20:00,
2013-10-01 11:25:00,71.6,53.0,29.95,NW,311,5.0,10.0,52,0.00,,,0.00,Wunderground v.1.15,2013-10-01 15:25:00,
2013-10-01 11:30:00,72.0,52.9,29.95,North,351,6.0,9.0,51,0.00,,,0.00,Wunderground v.1.15,2013-10-01 15:30:00,
2013-10-01 11:35:00,71.9,52.8,29.94,NNW,342,11.0,15.0,51,0.00,,,0.00,Wunderground v.1.15,2013-10-01 15:35:00,
2013-10-01 11:40:00,72.1,53.0,29.94,NW,306,5.0,6.0,51,0.00,,,0.00,Wunderground v.1.15,2013-10-01 15:40:00,
2013-10-01 11:45:00,72.5,52.8,29.94,NW,314,5.0,15.0,50,0.00,,,0.00,Wunderground v.1.15,2013-10-01 15:45:00,
2013-10-01 11:50:00,72.9,52.6,29.93,West,278,5.0,6.0,49,0.00,,,0.00,Wunderground v.1.15,2013-10-01 15:50:00,
2013-10-01 11:55:00,73.1,52.2,29.93,NNE,21,7.0,12.0,48,0.00,,,0.00,Wunderground v.1.15,2013-10-01 15:55:00,
2013-10-01 12:00:00,72.7,52.4,29.93,NW,317,7.0,10.0,49,0.00,,,0.00,Wunderground v.1.15,2013-10-01 16:00:00,
2013-10-01 12:06:00,72.9,52.6,29.93,NW,314,4.0,10.0,49,0.00,,,0.00,Wunderground v.1.15,2013-10-01 16:06:00,
2013-10-01 12:11:00,73.3,52.4,29.93,WNW,295,3.0,10.0,48,0.00,,,0.00,Wunderground v.1.15,2013-10-01 16:11:00,
2013-10-01 12:16:00,73.5,52.6,29.93,NNE,16,6.0,11.0,48,0.00,,,0.00,Wunderground v.1.15,2013-10-01 16:16:00,
2013-10-01 12:21:00,73.5,52.0,29.92,NNW,327,7.0,9.0,47,0.00,,,0.00,Wunderground v.1.15,2013-10-01 16:21:00,
2013-10-01 12:26:00,73.5,51.4,29.92,NW,322,4.0,12.0,46,0.00,,,0.00,Wunderground v.1.15,2013-10-01 16:26:00,
2013-10-01 12:31:00,73.8,51.7,29.92,NNE,33,11.0,11.0,46,0.00,,,0.00,Wunderground v.1.15,2013-10-01 16:31:00,
2013-10-01 12:36:00,73.6,50.9,29.92,NNE,32,7.0,15.0,45,0.00,,,0.00,Wunderground v.1.15,2013-10-01 16:36:00,
2013-10-01 12:41:00,73.5,50.2,29.92,NNW,329,1.0,11.0,44,0.00,,,0.00,Wunderground v.1.15,2013-10-01 16:41:00,
2013-10-01 12:46:00,73.8,50.5,29.92,NNW,345,7.0,12.0,44,0.00,,,0.00,Wunderground v.1.15,2013-10-01 16:46:00,
2013-10-01 12:51:00,73.9,50.6,29.92,NNE,12,9.0,17.0,44,0.00,,,0.00,Wunderground v.1.15,2013-10-01 16:51:00,
2013-10-01 12:56:00,73.4,50.8,29.91,NNW,333,6.0,17.0,45,0.00,,,0.00,Wunderground v.1.15,2013-10-01 16:56:00,
2013-10-01 13:01:00,73.9,51.2,29.91,NNW,340,9.0,12.0,45,0.00,,,0.00,Wunderground v.1.15,2013-10-01 17:01:00,
2013-10-01 13:06:00,74.2,51.5,29.91,North,355,6.0,12.0,45,0.00,,,0.00,Wunderground v.1.15,2013-10-01 17:06:00,
2013-10-01 13:11:00,74.0,51.3,29.91,North,355,7.0,10.0,45,0.00,,,0.00,Wunderground v.1.15,2013-10-01 17:11:00,
2013-10-01 13:16:00,73.7,51.6,29.91,NNW,348,9.0,14.0,46,0.00,,,0.00,Wunderground v.1.15,2013-10-01 17:16:00,
2013-10-01 13:21:00,74.1,52.6,29.91,NW,314,3.0,8.0,47,0.00,,,0.00,Wunderground v.1.15,2013-10-01 17:21:00,
2013-10-01 13:26:00,74.2,52.1,29.91,NE,54,4.0,12.0,46,0.00,,,0.00,Wunderground v.1.15,2013-10-01 17:26:00,
2013-10-01 13:31:00,74.5,52.4,29.90,NNW,333,4.0,6.0,46,0.00,,,0.00,Wunderground v.1.15,2013-10-01 17:31:00,
2013-10-01 13:36:00,74.9,52.7,29.90,NE,42,2.0,13.0,46,0.00,,,0.00,Wunderground v.1.15,2013-10-01 17:36:00,
2013-10-01 13:41:00,75.6,53.4,29.90,NNW,341,4.0,10.0,46,0.00,,,0.00,Wunderground v.1.15,2013-10-01 17:41:00,
2013-10-01 13:46:00,76.0,52.5,29.90,NNW,336,7.0,10.0,44,0.00,,,0.00,Wunderground v.1.15,2013-10-01 17:46:00,
2013-10-01 13:51:00,76.2,52.7,29.89,North,355,3.0,6.0,44,0.00,,,0.00,Wunderground v.1.15,2013-10-01 17:51:00,
2013-10-01 13:56:00,76.1,52.6,29.90,NNW,331,7.0,10.0,44,0.00,,,0.00,Wunderground v.1.15,2013-10-01 17:56:00,
2013-10-01 14:01:00,75.6,52.8,29.89,NE,40,10.0,10.0,45,0.00,,,0.00,Wunderground v.1.15,2013-10-01 18:01:00,
2013-10-01 14:06:00,75.4,53.2,29.89,NE,40,9.0,10.0,46,0.00,,,0.00,Wunderground v.1.15,2013-10-01 18:06:00,
2013-10-01 14:11:00,75.0,53.4,29.89,WNW,292,6.0,6.0,47,0.00,,,0.00,Wunderground v.1.15,2013-10-01 18:11:00,
2013-10-01 14:16:00,75.4,53.2,29.89,North,355,4.0,13.0,46,0.00,,,0.00,Wunderground v.1.15,2013-10-01 18:16:00,
2013-10-01 14:21:00,76.0,53.7,29.88,NNE,17,7.0,10.0,46,0.00,,,0.00,Wunderground v.1.15,2013-10-01 18:21:00,
2013-10-01 14:27:00,75.8,53.5,29.88,NW,311,6.0,10.0,46,0.00,,,0.00,Wunderground v.1.15,2013-10-01 18:27:00,
2013-10-01 14:32:00,76.1,53.2,29.88,NNE,18,2.0,9.0,45,0.00,,,0.00,Wunderground v.1.15,2013-10-01 18:32:00,
2013-10-01 14:37:00,76.1,53.8,29.88,NNE,13,5.0,9.0,46,0.00,,,0.00,Wunderground v.1.15,2013-10-01 18:37:00,
2013-10-01 14:42:00,76.2,53.9,29.88,NNW,328,1.0,5.0,46,0.00,,,0.00,Wunderground v.1.15,2013-10-01 18:42:00,
2013-10-01 14:47:00,76.6,53.7,29.88,NW,305,8.0,9.0,45,0.00,,,0.00,Wunderground v.1.15,2013-10-01 18:47:00,
2013-10-01 14:52:00,76.9,53.9,29.88,NW,309,5.0,8.0,45,0.00,,,0.00,Wunderground v.1.15,2013-10-01 18:52:00,
2013-10-01 14:57:00,77.2,53.6,29.88,North,360,5.0,10.0,44,0.00,,,0.00,Wunderground v.1.15,2013-10-01 18:57:00,
2013-10-01 15:02:00,77.5,53.9,29.87,WNW,299,7.0,8.0,44,0.00,,,0.00,Wunderground v.1.15,2013-10-01 19:02:00,
2013-10-01 15:07:00,78.1,54.4,29.87,NW,304,10.0,14.0,44,0.00,,,0.00,Wunderground v.1.15,2013-10-01 19:07:00,
2013-10-01 15:12:00,78.0,53.7,29.87,NNW,346,7.0,9.0,43,0.00,,,0.00,Wunderground v.1.15,2013-10-01 19:12:00,
2013-10-01 15:17:00,77.5,53.2,29.87,NNW,347,4.0,13.0,43,0.00,,,0.00,Wunderground v.1.15,2013-10-01 19:17:00,
2013-10-01 15:22:00,77.2,53.6,29.87,NW,321,5.0,7.0,44,0.00,,,0.00,Wunderground v.1.15,2013-10-01 19:22:00,
2013-10-01 15:27:00,77.6,53.3,29.87,NW,318,2.0,13.0,43,0.00,,,0.00,Wunderground v.1.15,2013-10-01 19:27:00,
2013-10-01 15:32:00,77.5,53.2,29.87,NW,322,4.0,8.0,43,0.00,,,0.00,Wunderground v.1.15,2013-10-01 19:32:00,
2013-10-01 15:37:00,77.2,53.0,29.87,North,9,2.0,12.0,43,0.00,,,0.00,Wunderground v.1.15,2013-10-01 19:37:00,
2013-10-01 15:42:00,77.2,53.6,29.86,North,5,4.0,9.0,44,0.00,,,0.00,Wunderground v.1.15,2013-10-01 19:42:00,
2013-10-01 15:47:00,77.3,53.1,29.86,NNE,33,5.0,12.0,43,0.00,,,0.00,Wunderground v.1.15,2013-10-01 19:47:00,
2013-10-01 15:52:00,77.3,53.1,29.86,NNW,336,3.0,9.0,43,0.00,,,0.00,Wunderground v.1.15,2013-10-01 19:52:00,
2013-10-01 15:57:00,77.3,53.7,29.86,NNW,333,4.0,9.0,44,0.00,,,0.00,Wunderground v.1.15,2013-10-01 19:57:00,
2013-10-01 16:02:00,77.2,53.6,29.86,NNW,327,6.0,12.0,44,0.00,,,0.00,Wunderground v.1.15,2013-10-01 20:02:00,
2013-10-01 16:07:00,77.2,53.6,29.86,WNW,303,1.0,12.0,44,0.00,,,0.00,Wunderground v.1.15,2013-10-01 20:07:00,
2013-10-01 16:12:00,77.3,53.7,29.86,WNW,300,6.0,11.0,44,0.00,,,0.00,Wunderground v.1.15,2013-10-01 20:12:00,
2013-10-01 16:17:00,77.3,54.3,29.86,NW,318,6.0,14.0,45,0.00,,,0.00,Wunderground v.1.15,2013-10-01 20:17:00,
2013-10-01 16:22:00,77.4,54.4,29.86,NNW,336,4.0,10.0,45,0.00,,,0.00,Wunderground v.1.15,2013-10-01 20:22:00,
2013-10-01 16:27:00,77.3,54.3,29.86,NNW,333,5.0,10.0,45,0.00,,,0.00,Wunderground v.1.15,2013-10-01 20:27:00,
2013-10-01 16:32:00,77.5,55.1,29.86,NNW,327,4.0,5.0,46,0.00,,,0.00,Wunderground v.1.15,2013-10-01 20:32:00,
2013-10-01 16:37:00,77.6,55.2,29.86,NNW,329,3.0,5.0,46,0.00,,,0.00,Wunderground v.1.15,2013-10-01 20:37:00,
2013-10-01 16:42:00,77.9,55.5,29.86,WNW,297,5.0,7.0,46,0.00,,,0.00,Wunderground v.1.15,2013-10-01 20:42:00,
2013-10-01 16:47:00,77.9,54.8,29.86,NNW,330,5.0,13.0,45,0.00,,,0.00,Wunderground v.1.15,2013-10-01 20:47:00,
2013-10-01 16:52:00,77.5,55.7,29.86,NW,314,4.0,12.0,47,0.00,,,0.00,Wunderground v.1.15,2013-10-01 20:52:00,
2013-10-01 16:57:00,77.0,55.2,29.86,NW,314,6.0,12.0,47,0.00,,,0.00,Wunderground v.1.15,2013-10-01 20:57:00,
2013-10-01 17:02:00,76.8,55.6,29.86,NNW,347,7.0,7.0,48,0.00,,,0.00,Wunderground v.1.15,2013-10-01 21:02:00,
2013-10-01 17:07:00,76.4,55.3,29.86,North,355,9.0,13.0,48,0.00,,,0.00,Wunderground v.1.15,2013-10-01 21:07:00,
2013-10-01 17:12:00,76.1,55.0,29.86,North,355,2.0,10.0,48,0.00,,,0.00,Wunderground v.1.15,2013-10-01 21:12:00,
2013-10-01 17:17:00,75.8,55.3,29.86,NNW,327,5.0,10.0,49,0.00,,,0.00,Wunderground v.1.15,2013-10-01 21:17:00,
2013-10-01 17:22:00,75.6,55.1,29.86,NNW,337,5.0,9.0,49,0.00,,,0.00,Wunderground v.1.15,2013-10-01 21:22:00,
2013-10-01 17:27:00,75.5,55.6,29.86,NNW,348,5.0,9.0,50,0.00,,,0.00,Wunderground v.1.15,2013-10-01 21:27:00,
2013-10-01 17:32:00,75.4,55.5,29.86,NW,317,5.0,6.0,50,0.00,,,0.00,Wunderground v.1.15,2013-10-01 21:32:00,
2013-10-01 17:37:00,75.3,55.9,29.86,NNW,341,2.0,7.0,51,0.00,,,0.00,Wunderground v.1.15,2013-10-01 21:37:00,
2013-10-01 17:42:00,75.1,55.7,29.86,NNW,341,1.0,3.0,51,0.00,,,0.00,Wunderground v.1.15,2013-10-01 21:42:00,
2013-10-01 17:47:00,74.9,56.1,29.86,NNW,330,0.0,5.0,52,0.00,,,0.00,Wunderground v.1.15,2013-10-01 21:47:00,
2013-10-01 17:52:00,74.8,56.0,29.86,NNW,330,0.0,3.0,52,0.00,,,0.00,Wunderground v.1.15,2013-10-01 21:52:00,
2013-10-01 17:58:00,74.5,56.2,29.87,NNW,330,0.0,3.0,53,0.00,,,0.00,Wunderground v.1.15,2013-10-01 21:58:00,
2013-10-01 18:03:00,74.0,56.8,29.87,NNW,330,0.0,1.0,55,0.00,,,0.00,Wunderground v.1.15,2013-10-01 22:03:00,
2013-10-01 18:08:00,73.1,57.0,29.87,NNW,330,0.0,1.0,57,0.00,,,0.00,Wunderground v.1.15,2013-10-01 22:08:00,
2013-10-01 18:13:00,72.2,57.1,29.87,NNW,330,0.0,0.0,59,0.00,,,0.00,Wunderground v.1.15,2013-10-01 22:13:00,
2013-10-01 18:18:00,71.3,56.7,29.87,NNW,330,0.0,0.0,60,0.00,,,0.00,Wunderground v.1.15,2013-10-01 22:18:00,
2013-10-01 18:23:00,70.6,56.5,29.87,NNW,330,0.0,0.0,61,0.00,,,0.00,Wunderground v.1.15,2013-10-01 22:23:00,
2013-10-01 18:28:00,70.0,56.8,29.88,NNW,330,0.0,0.0,63,0.00,,,0.00,Wunderground v.1.15,2013-10-01 22:28:00,
2013-10-01 18:33:00,69.3,56.6,29.88,NNW,330,0.0,0.0,64,0.00,,,0.00,Wunderground v.1.15,2013-10-01 22:33:00,
2013-10-01 18:38:00,68.7,56.5,29.88,NNW,330,0.0,0.0,65,0.00,,,0.00,Wunderground v.1.15,2013-10-01 22:38:00,
2013-10-01 18:43:00,68.1,56.3,29.88,NNW,330,0.0,0.0,66,0.00,,,0.00,Wunderground v.1.15,2013-10-01 22:43:00,
2013-10-01 18:48:00,67.5,56.2,29.88,NNW,330,0.0,0.0,67,0.00,,,0.00,Wunderground v.1.15,2013-10-01 22:48:00,
2013-10-01 18:53:00,66.9,56.0,29.88,NNW,330,0.0,0.0,68,0.00,,,0.00,Wunderground v.1.15,2013-10-01 22:53:00,
2013-10-01 18:58:00,66.3,55.8,29.88,NNW,330,0.0,0.0,69,0.00,,,0.00,Wunderground v.1.15,2013-10-01 22:58:00,
2013-10-01 19:03:00,65.8,55.7,29.88,NNW,330,0.0,0.0,70,0.00,,,0.00,Wunderground v.1.15,2013-10-01 23:03:00,
2013-10-01 19:08:00,65.4,55.7,29.88,NNW,330,0.0,0.0,71,0.00,,,0.00,Wunderground v.1.15,2013-10-01 23:08:00,
2013-10-01 19:13:00,65.0,55.8,29.88,NNW,330,0.0,0.0,72,0.00,,,0.00,Wunderground v.1.15,2013-10-01 23:13:00,
2013-10-01 19:18:00,64.7,55.5,29.89,NNW,330,0.0,0.0,72,0.00,,,0.00,Wunderground v.1.15,2013-10-01 23:18:00,
2013-10-01 19:20:00,64.6,55.7,29.89,NNW,330,0.0,0.0,73,0.00,,,0.00,Wunderground v.1.15,2013-10-01 23:20:00,
2013-10-01 19:25:00,64.2,55.4,29.89,NNW,330,0.0,0.0,73,0.00,,,0.00,Wunderground v.1.15,2013-10-01 23:25:00,
2013-10-01 19:30:00,63.8,55.4,29.89,NNW,330,0.0,0.0,74,0.00,,,0.00,Wunderground v.1.15,2013-10-01 23:30:00,
2013-10-01 19:35:00,63.5,55.4,29.89,NNW,330,0.0,0.0,75,0.00,,,0.00,Wunderground v.1.15,2013-10-01 23:35:00,
2013-10-01 19:40:00,63.1,55.4,29.89,NNW,330,0.0,0.0,76,0.00,,,0.00,Wunderground v.1.15,2013-10-01 23:40:00,
2013-10-01 19:45:00,62.8,55.5,29.89,NNW,330,0.0,0.0,77,0.00,,,0.00,Wunderground v.1.15,2013-10-01 23:45:00,
2013-10-01 19:50:00,62.6,55.6,29.90,NNW,330,0.0,0.0,78,0.00,,,0.00,Wunderground v.1.15,2013-10-01 23:50:00,
2013-10-01 19:55:00,62.3,55.4,29.90,NNW,330,0.0,0.0,78,0.00,,,0.00,Wunderground v.1.15,2013-10-01 23:55:00,
2013-10-01 20:00:00,62.2,55.6,29.90,NNW,330,0.0,0.0,79,0.00,,,0.00,Wunderground v.1.15,2013-10-02 00:00:00,
2013-10-01 20:05:00,61.9,55.3,29.90,NNW,330,0.0,0.0,79,0.00,,,0.00,Wunderground v.1.15,2013-10-02 00:05:00,
2013-10-01 20:10:00,61.7,55.5,29.90,NNW,330,0.0,0.0,80,0.00,,,0.00,Wunderground v.1.15,2013-10-02 00:10:00,
2013-10-01 20:15:00,61.5,55.3,29.90,NNW,330,0.0,0.0,80,0.00,,,0.00,Wunderground v.1.15,2013-10-02 00:15:00,
2013-10-01 20:16:00,61.4,55.5,29.90,NNW,330,0.0,0.0,81,0.00,,,0.00,Wunderground v.1.15,2013-10-02 00:16:00,
2013-10-01 20:21:00,61.3,55.4,29.90,NNW,330,0.0,0.0,81,0.00,,,0.00,Wunderground v.1.15,2013-10-02 00:21:00,
2013-10-01 20:26:00,61.1,55.6,29.90,NNW,330,0.0,0.0,82,0.00,,,0.00,Wunderground v.1.15,2013-10-02 00:26:00,
2013-10-01 20:31:00,60.9,55.4,29.90,NNW,330,0.0,0.0,82,0.00,,,0.00,Wunderground v.1.15,2013-10-02 00:31:00,
2013-10-01 20:36:00,60.6,55.1,29.90,NNW,330,0.0,0.0,82,0.00,,,0.00,Wunderground v.1.15,2013-10-02 00:36:00,
2013-10-01 20:41:00,60.4,55.2,29.90,NNW,330,0.0,0.0,83,0.00,,,0.00,Wunderground v.1.15,2013-10-02 00:41:00,
2013-10-01 20:46:00,60.2,55.0,29.90,NNW,330,0.0,0.0,83,0.00,,,0.00,Wunderground v.1.15,2013-10-02 00:46:00,
2013-10-01 20:51:00,60.0,55.2,29.90,NNW,330,0.0,0.0,84,0.00,,,0.00,Wunderground v.1.15,2013-10-02 00:51:00,
2013-10-01 20:56:00,59.8,55.0,29.91,NNW,330,0.0,0.0,84,0.00,,,0.00,Wunderground v.1.15,2013-10-02 00:56:00,
2013-10-01 21:01:00,59.7,55.2,29.90,NNW,330,0.0,0.0,85,0.00,,,0.00,Wunderground v.1.15,2013-10-02 01:01:00,
2013-10-01 21:06:00,59.6,55.1,29.90,NNW,330,0.0,0.0,85,0.00,,,0.00,Wunderground v.1.15,2013-10-02 01:06:00,
2013-10-01 21:11:00,59.5,55.0,29.90,NNW,330,0.0,0.0,85,0.00,,,0.00,Wunderground v.1.15,2013-10-02 01:11:00,
2013-10-01 21:16:00,59.3,54.8,29.90,NNW,330,0.0,0.0,85,0.00,,,0.00,Wunderground v.1.15,2013-10-02 01:16:00,
2013-10-01 21:21:00,59.1,54.9,29.90,NNW,330,0.0,0.0,86,0.00,,,0.00,Wunderground v.1.15,2013-10-02 01:21:00,
2013-10-01 21:26:00,59.0,54.8,29.91,NNW,330,0.0,0.0,86,0.00,,,0.00,Wunderground v.1.15,2013-10-02 01:26:00,
2013-10-01 21:31:00,59.0,54.8,29.90,NNW,330,0.0,0.0,86,0.00,,,0.00,Wunderground v.1.15,2013-10-02 01:31:00,
2013-10-01 21:36:00,58.8,54.6,29.91,NNW,330,0.0,0.0,86,0.00,,,0.00,Wunderground v.1.15,2013-10-02 01:36:00,
2013-10-01 21:41:00,58.6,54.7,29.91,NNW,330,0.0,0.0,87,0.00,,,0.00,Wunderground v.1.15,2013-10-02 01:41:00,
2013-10-01 21:46:00,58.4,54.5,29.90,NNW,330,0.0,0.0,87,0.00,,,0.00,Wunderground v.1.15,2013-10-02 01:46:00,
2013-10-01 21:51:00,58.2,54.3,29.90,NNW,330,0.0,0.0,87,0.00,,,0.00,Wunderground v.1.15,2013-10-02 01:51:00,
2013-10-01 21:56:00,58.1,54.2,29.90,NNW,330,0.0,0.0,87,0.00,,,0.00,Wunderground v.1.15,2013-10-02 01:56:00,
2013-10-01 22:01:00,57.9,54.4,29.91,NNW,330,0.0,0.0,88,0.00,,,0.00,Wunderground v.1.15,2013-10-02 02:01:00,
2013-10-01 22:06:00,57.7,54.2,29.91,NNW,330,0.0,0.0,88,0.00,,,0.00,Wunderground v.1.15,2013-10-02 02:06:00,
2013-10-01 22:11:00,57.7,54.2,29.91,NNW,330,0.0,0.0,88,0.00,,,0.00,Wunderground v.1.15,2013-10-02 02:11:00,
2013-10-01 22:16:00,57.7,54.2,29.91,NNW,330,0.0,0.0,88,0.00,,,0.00,Wunderground v.1.15,2013-10-02 02:16:00,
2013-10-01 22:21:00,57.6,54.1,29.90,NNW,330,0.0,0.0,88,0.00,,,0.00,Wunderground v.1.15,2013-10-02 02:21:00,
2013-10-01 22:26:00,57.6,54.4,29.90,NNW,330,0.0,0.0,89,0.00,,,0.00,Wunderground v.1.15,2013-10-02 02:26:00,
2013-10-01 22:31:00,57.6,54.4,29.90,NNW,330,0.0,0.0,89,0.00,,,0.00,Wunderground v.1.15,2013-10-02 02:31:00,
2013-10-01 22:36:00,57.5,54.3,29.90,NNW,330,0.0,0.0,89,0.00,,,0.00,Wunderground v.1.15,2013-10-02 02:36:00,
2013-10-01 22:41:00,57.5,54.3,29.91,NNW,330,0.0,0.0,89,0.00,,,0.00,Wunderground v.1.15,2013-10-02 02:41:00,
2013-10-01 22:46:00,57.4,54.2,29.90,NNW,330,0.0,0.0,89,0.00,,,0.00,Wunderground v.1.15,2013-10-02 02:46:00,
2013-10-01 22:51:00,57.4,54.2,29.91,NNW,330,0.0,0.0,89,0.00,,,0.00,Wunderground v.1.15,2013-10-02 02:51:00,
2013-10-01 22:56:00,57.4,54.5,29.91,NNW,330,0.0,0.0,90,0.00,,,0.00,Wunderground v.1.15,2013-10-02 02:56:00,
2013-10-01 23:01:00,57.3,54.4,29.91,NNW,330,0.0,0.0,90,0.00,,,0.00,Wunderground v.1.15,2013-10-02 03:01:00,
2013-10-01 23:06:00,57.2,54.3,29.90,NNW,330,0.0,0.0,90,0.00,,,0.00,Wunderground v.1.15,2013-10-02 03:06:00,
2013-10-01 23:11:00,57.1,54.2,29.90,NNW,330,0.0,0.0,90,0.00,,,0.00,Wunderground v.1.15,2013-10-02 03:11:00,
2013-10-01 23:16:00,57.0,54.1,29.90,NNW,330,0.0,0.0,90,0.00,,,0.00,Wunderground v.1.15,2013-10-02 03:16:00,
2013-10-01 23:21:00,56.8,53.9,29.90,NNW,330,0.0,0.0,90,0.00,,,0.00,Wunderground v.1.15,2013-10-02 03:21:00,
2013-10-01 23:26:00,56.7,53.8,29.90,NNW,330,0.0,0.0,90,0.00,,,0.00,Wunderground v.1.15,2013-10-02 03:26:00,
2013-10-01 23:31:00,56.7,53.8,29.90,NNW,330,0.0,0.0,90,0.00,,,0.00,Wunderground v.1.15,2013-10-02 03:31:00,
2013-10-01 23:36:00,56.6,53.7,29.90,NNW,330,0.0,0.0,90,0.00,,,0.00,Wunderground v.1.15,2013-10-02 03:36:00,
2013-10-01 23:41:00,56.6,54.0,29.90,NNW,330,0.0,0.0,91,0.00,,,0.00,Wunderground v.1.15,2013-10-02 03:41:00,
2013-10-01 23:46:00,56.5,53.9,29.90,NNW,330,0.0,0.0,91,0.00,,,0.00,Wunderground v.1.15,2013-10-02 03:46:00,
2013-10-01 23:51:00,56.3,53.4,29.90,NNW,330,0.0,0.0,90,0.00,,,0.00,Wunderground v.1.15,2013-10-02 03:51:00,
2013-10-01 23:56:00,56.1,53.2,29.90,NNW,330,0.0,0.0,90,0.00,,,0.00,Wunderground v.1.15,2013-10-02 03:56:00,